Location: Cluj-Napoca
(46.7712°N, 23.6236°E)
Time: 23:25:56
(UTC+03:00)

N. Korean satellite - Pass Details

Date: 03 October 2021
Orbit: 450 x 495 km, 97.3° (Epoch: 25 October)

Event Time Altitude Azimuth Distance (km) Brightness Sun altitude
Rises 05:54:05 0° 26° (NNE) 2,557 10.8 -16.6°
Reaches altitude 10° 05:56:34 10° 44° (NE) 1,679 10.1 -16.2°
Maximum altitude 05:59:17 20° 93° (E) 1,188 9.5 -15.8°
Drops below altitude 10° 06:02:01 10° 142° (SE) 1,682 9.6 -15.3°
Sets 06:04:30 0° 160° (SSE) 2,563 10.4 -14.9°
